www.pogodaiklimat.ru

Погода и климат >> Архив погоды >> Таиланд >> Сураттхани


ПОГОДА в Сураттхани

  • Прогноз погоды в Сураттхани
  • Монитор погоды в Сураттхани

АРХИВ ПОГОДЫ в Сураттхани

Время (UTC), дата Ветер
(напр.,м/с)
 
Видим.   Явления Облачность Т
(С)
Тd
(С)
f
(%)
Тe
(С)
Тes
(С)
Комфортность P
(гПа)
Po
(гПа)
Тmin
(С)
Tmax
(С)
R
(мм)
R24
(мм)
S
(см)
00 14.03 штиль 0 700 м туман 5/1 600 м
[Cu hum Cs]
+22.0 +21.2 95 +28 +29 душно 1013.6 1012.8 +22.0
03 14.03 В 1 8000 м дымка {туман} 5/3 600 м
[Cu hum Cs]
+30.3 +24.9 73 +43 +54 опасность
перегрева
1014.8 1014.0
06 14.03 СВ 7 10 км {туман} 3/1 600 м
[Cu hum Cs]
+35.5 +19.8 40 +41 +46 опасность
перегрева
1012.3 1011.5
09 14.03 СВ 6 10 км 5/1 600 м
[Cu hum Cs]
+33.1 +23.5 57 +44 +46 опасность
перегрева
1010.2 1009.5
12 14.03 СВ 5 10 км 4/1 600 м
[Cu med, cong Ac lent Cs]
+29.6 +24.4 74 +42 +42 опасность
перегрева
1011.0 1010.2 +35.7
15 14.03 СВ 2 9000 м дымка 3/1 600 м
[Cu hum Ac lent Cs]
+27.5 +23.9 81 +38 +38 очень
душно
1013.3 1012.5
18 14.03 штиль 0 8000 м дымка 4/1 600 м
[Cu hum Ac lent Cs]
+25.2 +23.6 91 +34 +34 очень
душно
1012.9 1012.0
21 14.03 штиль 0 8000 м дымка 4/1 600 м
[Cu hum Cs]
+23.2 +22.4 95 +32 +32 очень
душно
1011.9 1011.1
00 15.03 штиль 0 8000 м дымка 5/1 600 м
[Sc Cs]
+22.0 +22.0 100 +29 +30 очень
душно
1013.1 1012.3 +22.0
03 15.03 СЗ 2 12 км 3/1 600 м
[Cu hum Cs]
+30.6 +24.0 68 +42 +54 опасность
перегрева
1014.9 1014.1
06 15.03 СВ 3 10 км 5/3 600 м
[Sc Ac lent Cs]
+35.0 +24.2 54 +47 +58 опасность
перегрева
1013.1 1012.3
09 15.03 СВ 7 10 км 8/1 600 м
[Sc Ac lent Cs]
+34.0 +27.1 67 +52 +53 опасность
перегрева
1011.0 1010.2
12 15.03 СВ 3 10 км 8/1 600 м
[Sc Ac lent Cs]
+30.2 +25.2 75 +44 +44 опасность
перегрева
1011.1 1010.3 +35.5
15 15.03 штиль 0 8000 м дымка 4/1 600 м
[Cu hum Ac lent Cs]
+27.5 +23.9 81 +38 +38 очень
душно
1013.8 1013.0
18 15.03 штиль 0 8000 м дымка 4/1 600 м
[Sc Ac lent Cs]
+25.0 +23.2 90 +33 +33 очень
душно
1012.6 1011.8
21 15.03 штиль 0 8000 м дымка 4/1 600 м
[Sc Ac lent Cs]
+25.0 +23.2 90 +33 +33 очень
душно
1012.6 1011.8
00 16.03 штиль 0 1500 м дымка 4/1 600 м
[Cu hum Cs]
+22.6 +22.3 98 +30 +31 очень
душно
1013.4 1012.5 +22.6
03 16.03 СЗ 3 9000 м дымка 5/3 600 м
[Cu hum Cs]
+30.5 +24.5 70 +43 +51 опасность
перегрева
1015.2 1014.4
06 16.03 ЮВ 4 10 км 8/3 600 м
[Cu med, cong Cs]
+34.6 +22.9 51 +45 +53 опасность
перегрева
1012.4 1011.7
09 16.03 СВ 4 10 км 6/3 600 м
[Cu med, cong Ac trans Cs]
+32.7 +23.0 57 +43 +46 опасность
перегрева
1011.2 1010.4
12 16.03 СВ 2 10 км 6/1 600 м
[Cu hum Cs]
+29.5 +23.7 71 +40 +40 очень
душно
1011.4 1010.6 +36.0
15 16.03 штиль 0 8000 м дымка 5/1 600 м
[Cu hum Cs]
+26.0 +23.1 84 +35 +35 очень
душно
1013.9 1013.1
18 16.03 штиль 0 8000 м дымка 5/3 600 м
[Cu hum Cs]
+24.5 +23.0 91 +32 +32 очень
душно
1013.6 1012.8
21 16.03 штиль 0 6000 м дымка 4/1 600 м
[Cu hum Cs]
+23.5 +22.8 96 +31 +31 очень
душно
1012.2 1011.4
00 17.03 штиль 0 5000 м дымка 6/3 600 м
[Cu hum Ac lent Cs]
+23.0 +22.2 95 +31 +32 очень
душно
1013.5 1012.7 +23.0
03 17.03 З 3 10 км 3/1 600 м
[Cu hum Cs]
+30.7 +23.5 66 +42 +52 опасность
перегрева
1014.6 1013.8
06 17.03 В 2 10 км 6/4 300 м
[Cu med, cong Ac lent Cs]
+33.8 +22.8 53 +44 +54 опасность
перегрева
1011.5 1010.7
09 17.03 СВ 5 10 км 5/1 600 м
[Cu med, cong Ac lent Cs]
+33.0 +24.2 60 +45 +48 опасность
перегрева
1009.6 1008.8
12 17.03 С 3 8000 м дымка 6/3 600 м
[Cu med, cong Ac lent Cs]
+29.7 +24.6 74 +42 +42 опасность
перегрева
1010.8 1010.0 +34.8
15 17.03 СВ 2 8000 м дымка 6/1 600 м
[Cu hum Cs]
+27.3 +23.8 81 +37 +37 очень
душно
1013.2 1012.4
18 17.03 штиль 0 8000 м дымка 5/1 600 м
[Cu hum Cs]
+25.5 +24.0 91 +35 +35 очень
душно
1012.6 1011.8
21 17.03 штиль 0 7000 м дымка 4/1 600 м
[Cu hum Cs]
+24.0 +23.1 95 +32 +32 очень
душно
1011.4 1010.6
00 18.03 штиль 0 900 м туман 5/1 600 м
[Cu hum Ac lent Cs]
+23.4 +22.8 96 +33 +33 очень
душно
1012.4 1011.6 +23.4
03 18.03 СВ 2 8000 м мгла {туман} 5/1 600 м
[Cu hum Cs]
+31.6 +23.7 63 +43 +55 опасность
перегрева
1013.7 1012.9
06 18.03 СВ 3 9000 м в посл. час дождь {туман} 9/3 300 м
[Cu Sc Ac As Cs]
+34.5 +24.6 56 +47 +54 опасность
перегрева
1011.5 1010.7 1
09 18.03 С 6 9000 м дымка {дождь} 8/3 600 м
[Cu med, cong Ac As Cs]
+30.5 +24.0 68 +42 +43 опасность
перегрева
1009.5 1008.7 0.0
12 18.03 С 5 8000 м дымка {дождь} 8/1 600 м
[Cb cap Ac lent Cs]
+29.2 +23.9 73 +40 +40 очень
душно
1009.9 1009.2 +34.7 1
15 18.03 штиль 0 7000 м дымка 5/1 600 м
[Cu hum Ac lent Cs]
+27.0 +24.1 84 +37 +37 очень
душно
1011.9 1011.1
18 18.03 штиль 0 7000 м дымка 5/1 600 м
[Cu hum Ac lent Cs]
+25.0 +23.8 93 +34 +34 очень
душно
1011.5 1010.7
21 18.03 штиль 0 6000 м дымка 5/1 600 м
[Cu hum Ac lent Cs]
+24.3 +23.4 95 +33 +33 очень
душно
1010.5 1009.7
00 19.03 штиль 0 7000 м дымка 8/1 600 м
[Sc Ac lent Cs]
+24.0 +23.3 96 +32 +33 очень
душно
1011.9 1011.1 +23.3 1
03 19.03 ЮЗ 2 10 км 6/1 600 м
[Sc Ac lent Cs]
+30.5 +24.3 70 +43 +52 опасность
перегрева
1013.3 1012.5
06 19.03 В 3 10 км пыльная буря 8/5 600 м
[Cu Sc Ac und Cs]
+33.8 +24.9 60 +47 +54 опасность
перегрева
1010.8 1010.1
09 19.03 СВ 5 10 км 5/1 600 м
[Cu med, cong Ac lent Cs]
+33.2 +24.1 59 +45 +48 опасность
перегрева
1008.1 1007.3
12 19.03 СВ 3 8000 м дымка 5/1 600 м
[Cb cap Ac lent Cs]
+30.0 +24.6 73 +43 +43 опасность
перегрева
1008.3 1007.5 +35.5
15 19.03 штиль 0 8000 м дымка 3/1 600 м
[Cu hum Cs]
+27.0 +24.1 84 +37 +37 очень
душно
1011.2 1010.4
18 19.03 штиль 0 8000 м дымка 5/1 600 м
[Cu hum Ac lent Cs]
+25.0 +23.5 91 +34 +34 очень
душно
1010.8 1010.0
21 19.03 штиль 0 7000 м дымка 4/1 600 м
[Cu hum Ac lent Cs]
+24.0 +23.3 96 +32 +32 очень
душно
1009.9 1009.1
00 20.03 штиль 0 2000 м дымка 6/1 600 м
[Cu hum Ac lent Cs]
+22.7 +21.9 95 +30 +31 очень
душно
1010.8 1010.0 +22.7
03 20.03 СЗ 1 10 км 5/1 600 м
[Cu hum Ac lent Cs]
+31.3 +23.7 64 +42 +54 опасность
перегрева
1013.4 1012.6
06 20.03 С 4 10 км 4/3 600 м
[Cu hum Cs]
+35.2 +21.9 46 +43 +53 опасность
перегрева
1010.5 1009.7
09 20.03 СВ 7 10 км 6/3 300 м
[Cb cap Cs]
+33.3 +24.3 59 +45 +47 опасность
перегрева
1007.9 1007.1
12 20.03 В 4 8000 м дымка 5/1 600 м
[Cu hum Ac lent Cs]
+29.5 +23.7 71 +40 +40 очень
душно
1008.9 1008.1 +35.5
15 20.03 СЗ 2 8000 м дымка 4/1 600 м
[Cu hum Cs]
+26.7 +23.8 84 +37 +37 очень
душно
1011.8 1011.0
18 20.03 штиль 0 8000 м дымка 4/1 300 м
[Cu hum Cs]
+24.9 +23.3 91 +33 +33 очень
душно
1011.8 1011.0

 

Местоположение метеостанции Сураттхани (Таиланд): широта 9.12 долгота 99.15 высота над уровнем моря 11 м.

В архиве по умолчанию представлена погода в Сураттхани за последнюю неделю. Архивные данные за месяц целиком и за предыдущие месяцы, начиная с января 2011 года, Вы можете получить, выбрав интересующий диапазон дат из раскрывающегося списка и нажав кнопку "Ввод!".


*Определитесь, кто Вы:
робот инопланетянин человек

Внимание! Время в таблицах - всемирное. Для получения местного времени необходимо прибавить поправку, которая равна 7 ч.

Смотрите также архив погоды в соседних городах и на ближайших метеорологических станциях:

Погода в Сураттхани Агромете (Таиланд) (53 км)
Погода в Прасанге (Таиланд) (62 км)
Погода в Чаванге (Таиланд) (86 км)
Погода в Самуи (Таиланд) (106 км)
Погода в Накхонситхаммарате 2 (Таиланд) (110 км)
Погода в Такуа Па (Таиланд) (110 км)
Погода в Ранонге (Таиланд) (112 км)
Погода в Виктория-Пойнт (Мьянма) (113 км)
Погода в Краби (Таиланд) (119 км)
Погода в Сави Агромете (Таиланд) (135 км)

Пояснения к столбцам:

Ветер - указаны скорость ветра в м/с - средняя за 10 мин, порывы в срок и между сроками (в фигурных скобках) и направление, откуда дует ветер: С - северный, СВ - северо-восточный, В - восточный, ЮВ - юго-восточный, Ю - южный, ЮЗ - юго-западный, З - западный, СЗ - северо-западный.
Видимость - горизонтальная дальность видимости в метрах или километрах. При видимости от 1 до 10 км при отсутствии осадков обычно наблюдается дымка, при ухудшении видимости до 1 км и менее - туман. В сухую погоду видимость может ухудшаться дымом, пылью или мглою.
Явления - указаны атмосферные явления, наблюдавшиеся в срок или в последний час перед сроком; фигурными скобками обозначены явления, наблюдавшиеся между сроками (за 1-3 часа до срока); квадратными скобками обозначены град или гололедные отложения с указанием их диаметра в мм.
Облачность - указаны через наклонную черту общая и нижняя облачность в баллах и высота нижней границы облаков в метрах; квадратными скобками обозначены формы облаков: Ci - перистые, Cs - перисто-слоистые, Cc - перисто-кучевые, Ac - высококучевые, As - высокослоистые, Sc - слоисто-кучевые, Ns - слоисто-дождевые, Cu - кучевые, Cb - кучево-дождевые. Подробнее классификацию облаков см. в Атласе облаков (PDF).
T - Температура воздуха - температура, измеренная на высоте 2 м над землей.
Td - Температура точки росы - температура, при понижении до которой содержащийся в воздухе водяной пар достигнет насыщения.
f - Относительная влажность воздуха - влажноcть воздуха, измеренная на высоте 2 м над землей.
Te - Эффективная температура - температура, которую ощущает одетый по сезону человек в тени. Характеристика душности погоды. При расчете учитывается влияние влажности воздуха и скорости ветра на теплоощущения человека.
Tes - Эффективная температура на солнце - температура, которую ощущает человек, с поправкой на солнечный нагрев. Характеристика знойности погоды. Зависит от высоты солнца над горизонтом, облачности и скорости ветра. Ночью, в пасмурную погоду, а также при ветре 12 м/с и более поправка равна нулю.
P - Атмосферное давление - приведенное к уровню моря атмосферное давление.
Po - Атмосферное давление - измеренное на уровне метеостанции атмосферное давление.
Tmin - Минимальная температура - минимум температуры воздуха на высоте 2 м над землей.
Tmax - Максимальная температура - максимум температуры воздуха на высоте 2 м над землей.
R - Количество осадков - Количество выпавших осадков за период времени, мм. При наведении курсора мыши на число - период времени, за который выпало указанное количество осадков.
R24 - Количество осадков - Количество выпавших осадков за 24 часа, мм.
S - Снежный покров - Высота снежного покрова, см. При наведении курсора мыши на число - состояние снежного покрова и степень покрытия местности в баллах.